Hovedside
METAR-TAF:

METAR-TAF

Lufthavner :

Leknes, Norge

Leknes lufthavn

breddegrad: 68-09N, lengdegrad: 013-37E, høyde over havet: 2 m

Gjeldene værobservasjon

Denne rapporten ble laget for 9 timer og 37 minutter siden, klokken 00:50 UTC
Vind 3 kt fra Øst-nordøst
Temperatur 10°C
Luftfuktighet 100%
Trykk 994 hPa
Sikt 10 km eller mer
Få skyer i en høyde av 300 ft
Spredte skyer i en høyde av 900 ft
Brutte skyer i en høyde av 1500 ft
lett regn

METAR: ENLK 250050Z 07003KT 9999 -RA FEW003 SCT009 BKN015 10/10 Q0994

Tid: 12:27 (10:27 UTC)


TAF: fraværende

Værobservasjoner og værvarsel for over 4000 flyplasser (METAR- og TAF-rapporter).

Tilgjengelige stasjoner er representert av de røde og gule prikkene på kartet.

Hold musepekeren over prikken for å se navnet på stasjonen.

Klikk så for å se værobservasjoner og -varsler.

For å forandre kartet kan du klikke på den grønne knappen med svart kryss for å zoome inn, på den grønne knappen med strek for å zoome ut, eller på de grønne pilene for å se tilstøtende kart.


METAR-TAF: